Total_Precipitation_Accumulation
2.58 2.66 2.58 2.57 2.40 2.36 2.37 2.26 2.15 2.16 2.07 1.86 1.60 1.57 1.66 1.62 1.65 1.82 1.83 1.91 1.99 2.31 2.80 3.08 3.03 2.83 2.78 2.84 2.84 2.75 2.55 2.38 2.26 2.06 1.83 1.64 1.52 1.45 1.32 1.27 1.24 1.18 1.14
2.83 2.92 2.87 2.80 2.71 2.64 2.71 2.54 2.33 2.54 2.38 2.24 2.01 1.95 1.90 1.97 1.95 2.00 2.17 2.20 2.03 2.06 2.42 2.87 3.12 3.19 3.19 3.12 2.99 2.77 2.61 2.51 2.50 2.37 2.16 1.95 1.78 1.66 1.55 1.48 1.38 1.29 1.24
2.92 3.02 3.16 3.07 2.99 2.94 2.99 2.92 2.81 2.88 2.61 2.45 2.28 2.19 2.18 2.28 2.27 2.20 2.33 2.46 2.25 2.21 2.23 2.40 2.67 2.91 3.15 3.28 3.25 3.09 2.87 2.72 2.64 2.58 2.50 2.33 2.12 1.99 1.88 1.75 1.65 1.58 1.52
3.08 3.36 3.43 3.36 3.36 3.26 3.34 3.45 3.37 3.17 3.02 2.82 2.61 2.31 2.23 2.41 2.48 2.47 2.48 2.54 2.66 2.48 2.38 2.27 2.35 2.52 2.82 3.13 3.30 3.43 3.32 3.10 2.90 2.74 2.65 2.56 2.45 2.28 2.12 1.92 1.82 1.81 1.76
3.59 3.77 3.85 3.83 3.81 3.84 3.80 3.63 3.80 3.59 3.49 3.30 2.88 2.60 2.34 2.28 2.36 2.33 2.46 2.43 2.53 2.54 2.57 2.44 2.35 2.41 2.63 3.02 3.23 3.50 3.59 3.48 3.33 3.08 2.86 2.68 2.65 2.56 2.41 2.24 2.08 1.94 1.86
4.20 4.36 4.27 4.28 4.31 4.36 4.19 4.15 4.19 3.95 3.70 3.64 3.18 2.91 2.65 2.38 2.36 2.37 2.41 2.54 2.45 2.25 2.34 2.44 2.55 2.37 2.54 2.73 2.90 3.17 3.51 3.72 3.67 3.46 3.33 3.15 2.96 2.76 2.48 2.27 2.11 2.01 1.90
5.10 5.14 4.92 4.89 4.80 4.68 4.48 4.39 4.24 4.01 3.76 3.75 3.63 3.18 2.59 2.22 2.15 2.06 2.12 2.37 2.40 2.27 2.29 2.33 2.40 2.33 2.20 2.26 2.38 2.68 3.12 3.61 3.92 3.83 3.64 3.45 3.16 2.90 2.67 2.44 2.26 2.16 2.02
5.94 5.95 5.91 5.70 5.53 5.27 4.79 4.42 4.25 4.01 3.65 3.77 3.80 3.72 3.02 2.53 2.06 1.68 1.78 1.86 1.95 2.14 2.11 2.05 2.16 2.29 2.18 2.15 1.95 2.13 2.44 2.89 3.48 3.81 3.76 3.50 3.31 3.12 2.96 2.80 2.64 2.49 2.31
6.06 6.19 6.14 5.93 5.64 5.11 4.57 4.39 4.33 4.15 3.91 3.84 3.74 3.90 3.36 2.82 2.38 1.90 1.65 1.56 1.68 1.78 1.78 1.81 1.86 1.98 1.97 2.02 1.95 1.95 2.10 2.28 2.80 3.33 3.45 3.24 3.07 2.93 2.87 2.82 2.75 2.65 2.54
5.83 5.77 5.59 5.18 4.81 4.46 4.18 4.04 4.09 3.96 3.93 3.76 3.67 3.39 3.15 2.87 2.58 2.18 1.76 1.55 1.58 1.61 1.63 1.60 1.64 1.83 1.90 1.94 1.95 1.89 1.86 1.95 2.27 2.68 2.97 3.01 2.91 2.85 2.83 2.79 2.75 2.77 2.79
5.01 4.64 4.32 4.11 4.02 3.83 3.63 3.51 3.51 3.41 3.26 3.17 3.16 3.11 3.04 2.82 2.48 2.24 1.96 1.75 1.72 1.56 1.56 1.66 1.72 1.79 1.88 1.94 1.97 1.94 1.88 1.75 1.84 2.00 2.25 2.48 2.63 2.73 2.80 2.89 2.92 2.89 2.90
4.24 3.76 3.50 3.30 3.18 3.01 2.81 2.70 2.68 2.70 2.78 2.83 2.89 2.87 2.81 2.77 2.60 2.51 2.29 2.04 1.92 1.81 1.73 1.69 1.75 1.85 2.00 2.10 2.08 2.26 1.95 1.76 1.71 1.73 1.79 1.95 2.15 2.33 2.49 2.68 2.90 2.98 3.02
3.86 3.39 2.96 2.74 2.51 2.31 2.20 2.18 2.16 2.16 2.27 2.39 2.49 2.53 2.52 2.46 2.43 2.50 2.56 2.31 2.07 1.92 1.81 1.76 1.77 1.87 1.91 2.08 2.29 2.43 2.07 1.91 1.76 1.63 1.59 1.65 1.80 1.92 2.04 2.17 2.39 2.61 2.79
3.24 2.93 2.49 2.14 1.92 1.78 1.68 1.77 1.80 1.82 1.88 1.97 2.05 2.22 2.22 2.16 2.26 2.36 2.45 2.52 2.40 2.09 1.84 1.79 1.86 1.90 1.90 1.91 2.15 2.27 1.95 1.96 1.74 1.62 1.57 1.57 1.61 1.68 1.76 1.86 2.06 2.26 2.37
2.29 2.15 1.95 1.74 1.61 1.57 1.57 1.60 1.59 1.58 1.67 1.76 1.82 1.95 2.03 2.02 2.09 2.17 2.31 2.43 2.49 2.32 2.08 1.94 1.93 1.88 1.88 1.94 2.10 1.73 1.68 1.89 1.75 1.63 1.55 1.45 1.41 1.46 1.50 1.56 1.62 1.74 1.85
1.59 1.57 1.53 1.52 1.45 1.39 1.44 1.52 1.46 1.45 1.56 1.58 1.58 1.68 1.77 1.82 1.93 2.02 2.14 2.24 2.30 2.26 2.16 1.94 1.88 1.83 1.81 1.72 1.88 1.57 1.59 1.76 1.63 1.52 1.43 1.37 1.31 1.32 1.35 1.40 1.46 1.48 1.51
1.31 1.31 1.32 1.33 1.32 1.30 1.32 1.34 1.31 1.32 1.38 1.53 1.61 1.65 1.71 1.75 1.82 1.81 1.83 1.89 2.02 2.14 2.23 2.14 1.95 1.88 1.88 1.80 1.70 1.51 1.41 1.40 1.39 1.43 1.37 1.33 1.26 1.20 1.22 1.23 1.20 1.20 1.21
1.18 1.20 1.20 1.20 1.24 1.31 1.34 1.29 1.20 1.20 1.28 1.41 1.50 1.58 1.57 1.55 1.61 1.68 1.73 1.72 1.77 1.89 2.01 2.07 1.94 1.78 1.77 1.75 1.69 1.61 1.36 1.22 1.22 1.23 1.15 1.09 1.10 1.07 1.02 1.03 1.05 1.02 1.00
1.18 1.15 1.10 1.13 1.20 1.25 1.26 1.23 1.18 1.16 1.18 1.25 1.31 1.33 1.34 1.37 1.34 1.38 1.44 1.50 1.52 1.54 1.70 1.76 1.74 1.68 1.63 1.56 1.61 1.58 1.43 1.46 1.21 1.14 1.04 0.95 0.92 0.90 0.86 0.84 0.88 0.94 0.92
1.13 1.17 1.12 1.08 1.08 1.02 0.96 0.93 0.94 0.99 0.99 1.01 1.04 1.06 1.12 1.21 1.24 1.27 1.26 1.30 1.33 1.45 1.54 1.61 1.57 1.56 1.57 1.46 1.48 1.53 1.48 1.41 1.27 1.04 1.02 0.88 0.80 0.73 0.72 0.74 0.73 0.75 0.80
0.93 0.95 0.96 0.92 0.86 0.74 0.65 0.65 0.70 0.74 0.80 0.82 0.84 0.82 0.82 0.97 1.08 1.05 0.97 1.08 1.22 1.38 1.45 1.48 1.42 1.35 1.32 1.39 1.38 1.33 1.33 1.35 1.29 1.14 1.15 0.98 0.88 0.82 0.82 0.80 0.76 0.71 0.73
0.96 0.87 0.81 0.80 0.74 0.58 0.58 0.55 0.61 0.74 0.82 0.81 0.83 0.83 0.75 0.78 0.81 0.80 0.79 0.92 1.11 1.16 1.26 1.38 1.38 1.35 1.32 1.34 1.32 1.31 1.38 1.43 1.44 1.21 1.18 1.10 0.99 0.99 0.93 0.87 0.81 0.71 0.68
1.05 1.01 0.90 0.84 0.82 0.75 0.61 0.51 0.55 0.70 0.82 0.83 0.83 0.81 0.70 0.64 0.71 0.73 0.74 0.78 0.86 0.87 0.98 1.21 1.36 1.31 1.32 1.38 1.44 1.39 1.47 1.51 1.45 1.34 1.38 1.32 1.12 1.02 0.81 0.73 0.76 0.67 0.65
1.05 1.00 0.93 0.86 0.78 0.62 0.47 0.41 0.43 0.58 0.76 0.80 0.79 0.79 0.80 0.74 0.69 0.70 0.69 0.74 0.83 0.88 0.89 0.94 1.17 1.21 1.18 1.29 1.40 1.46 1.53 1.51 1.46 1.41 1.46 1.46 1.16 1.07 0.87 0.87 0.80 0.65 0.62
0.94 0.88 0.79 0.76 0.74 0.60 0.39 0.33 0.39 0.57 0.73 0.74 0.69 0.63 0.67 0.70 0.68 0.65 0.71 0.85 0.92 0.97 0.81 0.81 0.92 1.02 1.05 1.13 1.21 1.30 1.50 1.64 1.57 1.38 1.36 1.44 1.24 1.13 1.02 0.97 0.86 0.75 0.65
0.85 0.78 0.68 0.70 0.71 0.68 0.50 0.40 0.43 0.55 0.69 0.69 0.68 0.64 0.58 0.57 0.57 0.59 0.70 0.84 0.93 0.94 0.86 0.86 1.03 1.12 1.10 1.19 1.21 1.31 1.54 1.62 1.54 1.50 1.33 1.37 1.33 1.31 1.27 1.02 0.92 0.84 0.78